Flag for U.S.A. Weather past 2 weeks in Pomona, California, U.S.A.

Now
62 °F

Passing clouds.


Feels Like: 62 °F
Forecast: 44 / 74 °F
Wind: 7 mph from Southwest

Location: Chino Airport

Current Time: Mar 4, 2015 at 7:05:42 PM

Latest Report: Mar 4, 2015 at 5:53 PM


Visibility: 10 mi

Pressure: 30.09 "Hg

Humidity: 39%

Dew point: 37 °F

Location of PomonaLocation

Historic Weather in Pomona — Graph

°F

Pomona temperature yesterday

Maximum temperature yesterday: 66 °F (at 2:53 PM)
Minimum temperature yesterday: 37 °F (at 4:53 AM)
Average temperature yesterday: 52 °F

Past Weeks' High & Low Weather Summary

 TemperatureHumidityPressure
High77 °F (Feb 18, 12:53 PM)97% (Feb 18, 1:53 AM)30.24 "Hg (Feb 18, 1:53 AM)
Low37 °F (Mar 3, 4:53 AM)19% (Mar 4, 2:53 PM)29.76 "Hg (Feb 27, 6:53 PM)
Average56 °F72%29.98 "Hg
* Reported Feb 17 5:53 PM — Mar 4 5:53 PM, Pomona, Weather by CustomWeather, © 2015

Note: Actual official high and low records may vary slightly from our data, if they occured in-between our weather recording intervals... More about our weather records

Advertising

Pomona weather history for previous 24 hours

 ConditionsComfort  
Time TempWeatherWind HumidityBarometerVisibility
5:53 PM
Wed, Mar 4
62 °FPassing clouds.7 mph39%30.09 "Hg10 mi
4:53 PM69 °FScattered clouds.5 mph25%30.06 "Hg10 mi
3:53 PM72 °FPassing clouds.5 mph19%30.06 "Hg10 mi
2:53 PM71 °FPassing clouds.No wind19%30.06 "Hg10 mi
1:53 PM71 °FPassing clouds.3 mph21%30.06 "Hg10 mi
12:53 PM71 °FPassing clouds.8 mph25%30.07 "Hg10 mi
11:53 AM70 °FPassing clouds.6 mph23%30.08 "Hg10 mi
10:53 AM68 °FPassing clouds.3 mph28%30.08 "Hg10 mi
9:53 AM67 °FSunny.7 mph23%30.08 "Hg10 mi
8:53 AM63 °FSunny.9 mph28%30.07 "Hg10 mi
7:53 AM51 °FSunny.3 mph74%30.06 "Hg10 mi
6:53 AM42 °FSunny.No wind89%30.03 "Hg10 mi
5:53 AM43 °FClear.6 mph89%30.01 "Hg7 mi
4:53 AM42 °FClear.5 mph89%30.00 "Hg8 mi
3:53 AM45 °FPassing clouds.3 mph86%29.98 "Hg10 mi
2:53 AM46 °FOvercast.5 mph86%29.98 "Hg10 mi
1:53 AM43 °FFog.No wind89%29.99 "Hg4 mi
12:53 AM46 °FClear.3 mph89%29.98 "Hg9 mi
11:53 PM
Tue, Mar 3
47 °FClear.No wind83%29.97 "Hg9 mi
10:53 PM50 °FClear.5 mph80%29.97 "Hg10 mi
9:53 PM51 °FClear.No wind74%29.96 "Hg10 mi
8:53 PM52 °FClear.No wind69%29.95 "Hg10 mi
7:53 PM50 °FClear.No wind74%29.93 "Hg10 mi
Weather by CustomWeather, © 2015

See weather overviewHow to use our weather pages